Weather History for Hamilton Airport, ON

Change the Weather History Date:

Wednesday, November 13, 2013

  Actual Average Record
Temperature  
Mean Temperature 29 °F -  
Max Temperature 38 °F 40 °F 60 °F (2005)
Min Temperature 20 °F 27 °F 20 °F (2013)
Degree Days  
Heating Degree Days 36    
Moisture  
Dew Point 21 °F    
Average Humidity 70    
Maximum Humidity 93    
Minimum Humidity 41    
Precipitation  
Precipitation 0.00 in 0.11 in - ()
Sea Level Pressure  
Sea Level Pressure 30.34 in    
Wind  
Wind Speed 11 mph ()    
Max Wind Speed 29 mph    
Max Gust Speed 38 mph    
Visibility 14.8 miles    
Events Snow    
Averages and records for this station are not official NWS values.
T = Trace of Precipitation, MM = Missing Value Source: Averaged Metar Reports

Daily Weather History Graph

Daily Weather History Graph

Search for Another Location

Airport:

Trip Planner

Search our weather history database for the weather conditions in past years. The results will help you decide how hot, cold, wet, or windy it might be!

Date:

Astronomy

Nov. 13, 2013 Rise Set
Actual Time 7:10 AM EST 4:57 PM EST
Civil Twilight 6:39 AM EST 5:27 PM EST
Nautical Twilight 6:05 AM EST 6:02 PM EST
Astronomical Twilight 5:31 AM EST 6:35 PM EST
Moon 2:49 PM EST (11/13) 2:55 AM EST (11/13)
Length of Visible Light 10h 48m
Length of Day
9h 47m
Waxing Gibbous, 84% of the Moon is Illuminated
Nov 13
Waxing Gibbous
Nov 17
Full
Nov 25
Last Quarter
Dec 2
New
Dec 9
First Quarter

Hourly Weather History & Observations

Time (EST) Temp. Windchill Dew Point Humidity Pressure Visibility Wind Dir Wind Speed Gust Speed Precip Events Conditions
12:00 AM 23.0 °F 14.7 °F 17.6 °F 80% 30.45 in 15.0 mi West 6.9 mph - N/A   Scattered Clouds
1:00 AM 24 °F - 20 °F 76% 30.45 in 15 mi WSW 5.8 mph - -   Mostly Cloudy
1:00 AM 24.8 °F 17.9 °F 19.4 °F 80% 30.45 in 15.0 mi WSW 5.8 mph - N/A   Mostly Cloudy
2:00 AM 24.8 °F 15.3 °F 21.2 °F 86% 30.45 in 15.0 mi West 9.2 mph - N/A Snow Light Snow Showers
3:00 AM 24.8 °F 19.1 °F 21.2 °F 86% 30.45 in 12.0 mi West 4.6 mph - N/A Snow Light Snow Showers
4:00 AM 24.8 °F 17.9 °F 21.2 °F 86% 30.44 in 12.0 mi West 5.8 mph - N/A Snow Light Snow Showers
5:00 AM 24.8 °F 17.9 °F 21.2 °F 86% 30.43 in 15.0 mi SW 5.8 mph - N/A   Mostly Cloudy
6:00 AM 21.2 °F 11.7 °F 19.4 °F 93% 30.43 in 15.0 mi SW 8.1 mph - N/A   Partly Cloudy
7:00 AM 22 °F - 20 °F 88% 30.44 in 15 mi SW 6.9 mph - -   Partly Cloudy
7:00 AM 21.2 °F 12.6 °F 19.4 °F 93% 30.44 in 15.0 mi WSW 6.9 mph - N/A   Partly Cloudy
8:00 AM 26.6 °F 17.5 °F 23.0 °F 86% 30.45 in 15.0 mi WSW 9.2 mph - N/A   Mostly Cloudy
9:00 AM 28.4 °F 18.0 °F 21.2 °F 74% 30.45 in 15.0 mi WSW 12.7 mph - N/A   Partly Cloudy
10:00 AM 30.2 °F 19.3 °F 19.4 °F 64% 30.44 in 15.0 mi WSW 15.0 mph - N/A   Scattered Clouds
11:00 AM 32.0 °F 19.8 °F 17.6 °F 55% 30.42 in 15.0 mi WSW 20.7 mph - N/A   Partly Cloudy
12:00 PM 33.8 °F 22.8 °F 19.4 °F 56% 30.38 in 15.0 mi SW 18.4 mph 27.6 mph N/A   Partly Cloudy
1:00 PM 35 °F - 20 °F 41% 30.34 in 15 mi Calm Calm - -   Scattered Clouds
1:00 PM 33.8 °F - 19.4 °F 56% 30.34 in 15.0 mi North - - N/A   Partly Cloudy
2:00 PM 35.6 °F 23.7 °F 17.6 °F 48% 30.31 in 15.0 mi SW 24.2 mph - N/A   Partly Cloudy
3:00 PM 37.4 °F 26.6 °F 17.6 °F 45% 30.29 in 15.0 mi WSW 21.9 mph 32.2 mph N/A   Partly Cloudy
4:00 PM 37.4 °F 25.9 °F 21.2 °F 52% 30.26 in 15.0 mi SW 25.3 mph 32.2 mph N/A   Scattered Clouds
5:00 PM 35.6 °F 25.2 °F 23.0 °F 60% 30.24 in 15.0 mi SW 18.4 mph 26.5 mph N/A   Partly Cloudy
6:00 PM 33.8 °F 22.2 °F 24.8 °F 70% 30.23 in 15.0 mi SW 20.7 mph - N/A   Partly Cloudy
7:00 PM 34 °F - 25 °F 59% 30.21 in 15 mi SW 18.4 mph - -   Clear
7:00 PM 33.8 °F 22.8 °F 24.8 °F 70% 30.21 in 15.0 mi SW 18.4 mph - N/A   Partly Cloudy
8:00 PM 33.8 °F 22.8 °F 24.8 °F 70% 30.18 in 15.0 mi SW 18.4 mph 25.3 mph N/A   Mostly Cloudy
9:00 PM 35.6 °F 24.0 °F 24.8 °F 65% 30.15 in 15.0 mi SW 23.0 mph 29.9 mph N/A   Mostly Cloudy
10:00 PM 35.6 °F 24.5 °F 24.8 °F 65% 30.13 in 15.0 mi SW 20.7 mph 33.4 mph N/A   Mostly Cloudy
11:00 PM 37.4 °F 25.2 °F 24.8 °F 60% 30.09 in 15.0 mi SW 28.8 mph 38.0 mph N/A   Mostly Cloudy